Arroyo de Medina,

4:53 AM CST on February 23, 2017 (GMT -0600)
Queretaro Airport

Weather History for MMQT - April, 2013

Change the Weather History Date:

Thursday, April 11, 2013

  Actual Average Record
Temperature  
Mean Temperature 68 °F -  
Max Temperature 86 °F 81 °F 93 °F (2011)
Min Temperature 51 °F 54 °F 46 °F (2014)
Cooling Degree Days 4    
Growing Degree Days 18 (Base 50)    
Moisture  
Dew Point 35 °F    
Average Humidity 29    
Maximum Humidity 62    
Minimum Humidity 4    
Precipitation  
Precipitation 0.00 in - - ()
Sea Level Pressure  
Sea Level Pressure 30.00 in    
Wind  
Wind Speed 5 mph ()    
Max Wind Speed 21 mph    
Max Gust Speed -    
Visibility 8.1 miles    
Events      
Averages and records for this station are not official NWS values.
T = Trace of Precipitation, MM = Missing Value Source: Averaged Metar Reports

Daily Weather History Graph

Daily Weather History Graph

Search for Another Location

Airport or City:

Trip Planner

Search our weather history database for the weather conditions in past years. The results will help you decide how hot, cold, wet, or windy it might be!

Date:

Astronomy

Apr. 11, 2013 Rise Set
Actual Time 7:25 AM CDT 7:58 PM CDT
Civil Twilight 7:02 AM CDT 8:20 PM CDT
Nautical Twilight 6:36 AM CDT 8:47 PM CDT
Astronomical Twilight 6:09 AM CDT 9:13 PM CDT
Moon 8:09 AM CDT (4/11) 9:19 PM CDT (4/11)
Length of Visible Light 13h 18m
Length of Day
12h 33m
New Moon, 2% of the Moon is Illuminated
Apr 11
New Moon
Apr 18
First Quarter
Apr 25
Full
May 2
Last Quarter
May 9
New

Hourly Weather History & Observations

Time (CDT) Temp. Dew Point Humidity Pressure Visibility Wind Dir Wind Speed Gust Speed Precip Events Conditions
12:45 AM 66.2 °F 42.8 °F 43% 30.14 in 7.0 mi Calm Calm - N/A   Scattered Clouds
1:45 AM 62.6 °F 44.6 °F 52% 30.14 in 7.0 mi West 6.9 mph - N/A   Scattered Clouds
2:45 AM 62.6 °F 44.6 °F 52% 30.14 in 7.0 mi Calm Calm - N/A   Scattered Clouds
3:45 AM 60.8 °F 42.8 °F 52% 30.12 in 7.0 mi Calm Calm - N/A   Scattered Clouds
4:45 AM 59.0 °F 44.6 °F 59% 30.10 in 7.0 mi Calm Calm - N/A   Scattered Clouds
5:45 AM 57.2 °F 41.0 °F 55% 30.10 in 7.0 mi Calm Calm - N/A   Scattered Clouds
6:40 AM 58 °F 30 °F 22% 29.66 in 6 mi South 2.2 mph - -  
6:45 AM 51.8 °F 39.2 °F 62% 30.10 in 7.0 mi Calm Calm - N/A   Scattered Clouds
7:45 AM 53.6 °F 28.4 °F 38% 30.10 in 8.0 mi Calm Calm - N/A   Scattered Clouds
8:45 AM 62.6 °F 37.4 °F 39% 30.12 in 8.0 mi Calm Calm - N/A   Scattered Clouds
9:40 AM 65 °F 33 °F 19% 29.73 in 16 mi NW 6.7 mph - -   Partly Cloudy
9:45 AM 66.2 °F 33.8 °F 30% 30.13 in 6.0 mi WSW 4.6 mph - N/A   Scattered Clouds
10:45 AM 69.8 °F 37.4 °F 31% 30.15 in 7.0 mi West 13.8 mph - N/A   Scattered Clouds
11:45 AM 73.4 °F 35.6 °F 25% 30.15 in 7.0 mi West 11.5 mph - N/A   Mostly Cloudy
12:45 PM 75.2 °F 35.6 °F 24% 30.15 in 7.0 mi WSW 17.3 mph - N/A   Mostly Cloudy
12:52 PM 78 °F 24 °F 6% 29.72 in 16 mi WNW 6.7 mph - -   Scattered Clouds
1:45 PM 77.0 °F 37.4 °F 24% 30.13 in 7.0 mi West 20.7 mph - N/A   Mostly Cloudy
2:45 PM 78.8 °F 37.4 °F 23% 30.12 in 7.0 mi WSW 17.3 mph - N/A   Mostly Cloudy
3:45 PM 82.4 °F 37.4 °F 20% 30.06 in 7.0 mi WSW 11.5 mph - N/A   Mostly Cloudy
3:50 PM 83 °F 22 °F 5% 29.60 in 16 mi West 8.9 mph - -   Scattered Clouds
4:45 PM 80.6 °F 37.4 °F 21% 30.04 in 7.0 mi West 9.2 mph - N/A   Mostly Cloudy
5:45 PM 82.4 °F 39.2 °F 21% 30.03 in 7.0 mi West 9.2 mph - N/A   Mostly Cloudy
6:40 PM 81 °F 19 °F 4% 29.44 in 16 mi WNW 15.7 mph - -   Scattered Clouds
6:45 PM 80.6 °F 37.4 °F 21% - 7.0 mi West 20.7 mph - N/A   Mostly Cloudy
7:45 PM 77.0 °F 37.4 °F 24% 30.02 in 7.0 mi West 13.8 mph - N/A   Mostly Cloudy
8:45 PM 69.8 °F 41.0 °F 35% 30.02 in 7.0 mi West 6.9 mph - N/A   Mostly Cloudy
9:45 PM 68.0 °F 28.4 °F 23% 30.05 in 7.0 mi Calm Calm - N/A   Mostly Cloudy
9:50 PM 73 °F 17 °F 5% 29.48 in 3 mi South 8.9 mph - -   Partly Cloudy
10:45 PM 69.8 °F 26.6 °F 20% 30.07 in 7.0 mi West 4.6 mph - N/A   Mostly Cloudy
11:45 PM 64.4 °F 24.8 °F 22% 30.08 in 7.0 mi WNW 5.8 mph - N/A   Scattered Clouds